Home   Weather   Ålesund   Past weeks

Flag for Norway Past Weather in Ålesund, Norway — Yesterday and Last 2 Weeks

Now
46 °F

Drizzle. Low clouds.


Feels Like: 37 °F
Forecast: 46 / 48 °F
Wind: 28 mph from Southwest

Location: Alesund / Vigra

Current Time: Dec 9, 2016 at 3:10:40 am

Latest Report: Dec 9, 2016 at 2:50 am


Visibility: 2 mi

Pressure: 29.65 "Hg

Humidity: 100%

Dew Point: 46 °F

Location of ÅlesundLocation

Past Weather in Ålesund — Graph

°F

Ålesund Temperature Yesterday

Maximum temperature yesterday: 50 °F (at 12:20 am)
Minimum temperature yesterday: 46 °F (at 11:50 am)
Average temperature yesterday: 49 °F

High & Low Weather Summary for the Past Weeks

 TemperatureHumidityPressure
High52 °F (Nov 25, 3:50 pm)100% (Dec 1, 5:50 am)30.48 "Hg (Dec 1, 5:50 am)
Low34 °F (Nov 27, 6:50 pm)53% (Nov 26, 11:20 pm)29.33 "Hg (Dec 8, 3:20 am)
Average43 °F82%30.00 "Hg
* Reported Nov 24 1:20 am — Dec 9 1:50 am, Ålesund, Weather by CustomWeather, © 2016

Note: Actual official high and low records may vary slightly from our data, if they occured in-between our weather recording intervals... More about our weather records

Advertising

Ålesund Weather History for the Previous 24 Hours

Scroll right to see more
 ConditionsComfort  
Time TempWeatherWind HumidityBarometerVisibility
1:50 am
Fri, Dec 9
48 °FPartly cloudy.29 mph94%29.65 "Hg2 mi
1:20 am48 °FLight rain. Mostly cloudy.29 mph94%29.65 "Hg3 mi
12:50 am48 °FLow clouds.29 mph87%29.68 "HgN/A
12:20 am48 °FMostly cloudy.28 mph94%29.68 "HgN/A
11:50 pm
Thu, Dec 8
48 °FPassing clouds.30 mph87%29.68 "HgN/A
11:20 pm48 °FPartly cloudy.29 mph94%29.68 "Hg3 mi
10:50 pm50 °FPartly cloudy.28 mph88%29.68 "HgN/A
9:50 pm48 °FSprinkles. Partly cloudy.24 mph94%29.68 "Hg3 mi
9:20 pm48 °FRain showers. Partly cloudy.23 mph94%29.68 "Hg4 mi
8:50 pm48 °FRain showers. Passing clouds.26 mph94%29.68 "Hg5 mi
8:20 pm50 °FPartly cloudy.23 mph88%29.68 "HgN/A
7:50 pm50 °FPartly cloudy.23 mph82%29.68 "HgN/A
7:20 pm50 °FPartly cloudy.24 mph88%29.68 "HgN/A
6:50 pm50 °FPartly cloudy.24 mph88%29.68 "HgN/A
6:20 pm50 °FPartly cloudy.24 mph88%29.68 "Hg6 mi
5:50 pm50 °FPartly cloudy.21 mph88%29.68 "Hg5 mi
5:20 pm50 °FPartly cloudy.22 mph88%29.71 "Hg4 mi
4:50 pm50 °FSprinkles. Partly cloudy.26 mph88%29.71 "HgN/A
4:20 pm48 °FRain showers. Partly cloudy.23 mph100%29.71 "Hg2 mi
3:50 pm48 °FRain showers. Light fog.17 mph94%29.68 "Hg4 mi
3:20 pm48 °FPartly cloudy.16 mph87%29.68 "HgN/A
2:50 pm48 °FBroken clouds.15 mph87%29.68 "HgN/A
2:20 pm48 °FScattered clouds.16 mph87%29.68 "HgN/A
1:50 pm48 °FScattered clouds.17 mph87%29.71 "HgN/A
1:20 pm48 °FScattered showers. Partly sunny.21 mph87%29.71 "HgN/A
12:50 pm46 °FScattered showers. Partly sunny.22 mph93%29.71 "HgN/A
12:20 pm46 °FScattered showers. Broken clouds.23 mph100%29.68 "Hg5 mi
11:50 am46 °FRain showers. Light fog.26 mph100%29.68 "Hg4 mi
11:20 am48 °FRain showers. Fog.22 mph94%29.68 "Hg4 mi
10:50 am48 °FDrizzle. Broken clouds.20 mph94%29.62 "Hg6 mi
10:20 am48 °FDrizzle. Broken clouds.20 mph94%29.59 "Hg5 mi
9:50 am48 °FPartly sunny.18 mph94%29.56 "Hg4 mi
9:20 am48 °FRain showers. Passing clouds.17 mph94%29.53 "Hg5 mi
8:50 am48 °FRain showers. Passing clouds.21 mph100%29.47 "Hg4 mi
8:20 am48 °FPartly cloudy.15 mph100%29.42 "Hg3 mi
7:50 am48 °FPassing clouds.21 mph100%29.39 "Hg3 mi
7:20 am48 °FDrizzle. Fog.20 mph100%29.36 "Hg4 mi
6:50 am48 °FPartly cloudy.20 mph100%29.36 "Hg2 mi
6:20 am48 °FPartly cloudy.21 mph100%29.33 "Hg2 mi
5:50 am50 °FRain. Partly cloudy.23 mph94%29.33 "Hg3 mi
5:20 am50 °FFog.21 mph94%29.33 "Hg3 mi
4:50 am48 °FPassing clouds.12 mph100%29.33 "Hg3 mi
4:20 am50 °FPartly cloudy.9 mph94%29.33 "Hg2 mi
3:50 am48 °FLight rain. Overcast.12 mph100%29.33 "HgN/A
3:20 am48 °FDrizzle. Low clouds.14 mph100%29.33 "Hg2 mi
Weather by CustomWeather, © 2016

See weather overviewHow to use our weather pages